Regional Weather Roundup
Issued by NWS

Home | Current Version | Previous Version | Graphics & Text | Print | Product List | Glossary Off
Versions: 1 2 3 4 5 6 7 8 9 10 11 12 13 14 15 16 17 18 19 20 21 22 23 24 25 26 27 28 29 30 31 32 33 34 35 36 37 38 39 40 41 42 43 44 45 46 47 48 49 50

000
ASUS43 KMKX 300921
RWRWI

WISCONSIN REGIONAL WEATHER ROUNDUP
NATIONAL WEATHER SERVICE MILWAUKEE/SULLIVAN WI
400 AM CDT THU JUL 30 2015

NOTE: "FAIR" INDICATES FEW OR NO CLOUDS BELOW 12,000 FEET WITH NO
SIGNIFICANT WEATHER AND/OR OBSTRUCTIONS TO VISIBILITY.

WIZ001-002-006>008-014>016-023>028-301000-
NORTHWEST WISCONSIN

CITY           SKY/WX    TMP DP  RH WIND       PRES   REMARKS
SUPERIOR ARPT  CLEAR     63  56  79 W7        29.90R
ASHLAND        CLEAR     63  55  75 SW9       29.88R
HAYWARD        PTCLDY    63  54  72 SW5       29.95R
SIREN          CLEAR     64  55  71 W7        29.96S
CUMBERLAND     CLEAR     59  54  82 W3        29.98S
RICE LAKE      CLEAR     61  55  81 W5        29.99S
CHETEK         CLEAR     65  56  71 W5        29.97S
LADYSMITH      CLEAR     62  55  77 SW6       29.97S
EAU CLAIRE     CLEAR     63  55  75 SW10      29.98R
MENOMONIE      CLEAR     64  55  72 W7        30.00R
NEW RICHMOND   CLEAR     63  55  75 SW8       30.00S
OSCEOLA        CLEAR     64  56  77 W6        30.01S
$$

WIZ003>005-009-010-017-018-301000-
NORTH CENTRAL WISCONSIN

CITY           SKY/WX    TMP DP  RH WIND       PRES   REMARKS
MANITOWISH WTR CLEAR     60  54  80 W8        29.90S
ARBOR VITAE    CLEAR     62  54  74 W8        29.91S
WOODRUFF       CLEAR     62  54  74 W8        29.91S
RHINELANDER    CLEAR     63  53  70 W14       29.93R
EAGLE RIVER    CLEAR     64  51  64 W12       29.89S
LAND O LAKES   CLEAR     63  52  67 W7        29.89S
PHILLIPS       CLEAR     61  54  78 W5        29.94R
TOMAHAWK       CLEAR     61  53  74 W7        29.94S
MEDFORD        CLEAR     60  55  84 W6        29.97R
MERRILL        NOT AVBL
$$

WIZ029-030-035-036-043>047-301000-
CENTRAL WISCONSIN

CITY           SKY/WX    TMP DP  RH WIND       PRES   REMARKS
WAUSAU         CLEAR     66  54  65 NW12      29.93S
MOSINEE        CLEAR     61  55  82 W10       29.96S
MARSHFIELD     CLEAR     61  53  75 W7        29.98R
STEVENS POINT  CLEAR     63  53  70 W8        29.97R
WAUPACA        CLEAR     67  55  65 SW8       29.95S
WAUTOMA        CLEAR     66  54  65 W8        29.98S
WISC RAPIDS    CLEAR     62  53  72 W6        29.99R
CAMP DOUGLAS   CLEAR     61  58  92 W8        29.99S
$$

WIZ011>013-019>022-031-037>040-048>050-301000-
NORTHEAST WISCONSIN

CITY           SKY/WX    TMP DP  RH WIND       PRES   REMARKS
ANTIGO         CLEAR     61  55  78 W9G17     29.93S
SHAWANO        CLEAR     67  55  65 W8        29.92R
OCONTO         CLEAR     63  56  80 W7        29.88S
STURGEON BAY   CLEAR     66  54  63 W10G17    29.90S
GREEN BAY      CLEAR     66  55  67 W8        29.92R
MANITOWOC      CLEAR     69  56  62 MISG      29.92S
APPLETON       CLEAR     61  52  72 W7        29.95S
CLINTONVILLE   CLEAR     64  54  68 W7        29.93R
OSHKOSH        CLEAR     67  54  63 W7        29.95S
$$

WIZ032>034-041-042-053>061-301000-
SOUTHWEST WISCONSIN

CITY           SKY/WX    TMP DP  RH WIND       PRES   REMARKS
LA CROSSE      CLEAR     70  55  59 W8        30.02R
SPARTA         CLEAR     59  54  82 W3        30.02S
VIROQUA        CLEAR     61  57  88 SW7       30.05S
BOSCOBEL       CLEAR     61  58  90 SW5       30.04S
PRAIRIE DU CHI CLEAR     66  57  72 NW3       30.05S
PLATTEVILLE    CLEAR     62  58  90 W7        30.07R
$$

WIZ056-057-062-063-064-067-068-301000-
SOUTH CENTRAL WISCONSIN

CITY           SKY/WX    TMP DP  RH WIND       PRES   REMARKS
REEDSBURG      CLEAR     65  56  72 W3        30.01S
BARABOO/DELLS  CLEAR     64  54  70 W6        30.02S
LONE ROCK      CLEAR     64  57  78 W3        30.04R
MINERAL POINT  CLEAR     63  59  88 W7        30.06R
MADISON        CLEAR     67  56  67 W7        30.01R
MIDDLETON      CLEAR     64  56  75 W8        30.03R
WATERTOWN      CLEAR     63  57  81 W5        29.99S
MONROE         CLEAR     64  57  77 W12       30.04S
JANESVILLE     CLEAR     63  55  77 W6        30.02R
$$

WIZ051-052-058>065-066-070>072-301000-
SOUTHEAST WISCONSIN

CITY           SKY/WX    TMP DP  RH WIND       PRES   REMARKS
MILWAUKEE      CLEAR     69  54  58 W8        29.98R
WAUKESHA       CLEAR     64  54  68 W14       30.00R
MILWAUKEE/TIMM CLEAR     64  52  63 W8        29.98S
RACINE         CLEAR     66  54  65 W7        30.00S
BURLINGTON     CLEAR     61  54  77 W6        30.00S
KENOSHA        CLEAR     62  55  77 W9        30.00R
FOND DU LAC    CLEAR     64  55  72 W6        29.97R
SHEBOYGAN      CLEAR     68  54  60 W14       29.94S
WEST BEND      CLEAR     64  52  63 W8        29.97S
JUNEAU         CLEAR     58  54  88 SW7       30.00S
$$

LSZ147-162-301000-
LAKE SUPERIOR

STATION/POSITION TIME  TEMP    WIND        PRES    WAVE
                       AIR SEA DIR/SP/G            HT/PER
                 (UTC) (F)     (DEG/KT/KT) (MB)    (FT/S)
W MID LAKE BUOY  0850   62 55  250/ 23/ 27 1006.9R   5/ 5
DEVILS ISLAND    0900   64     250/ 22/ 25 1009.9R
PORT WING        0800   70     240/ 14/ 22 1011.2S
SAXON HARBOR     0840   68                 1010.8R
$$

LMZ867-665-643>646-301000-
LAKE MICHIGAN

STATION/POSITION TIME  TEMP    WIND        PRES    WAVE
                       AIR SEA DIR/SP/G            HT/PER
                 (UTC) (F)     (DEG/KT/KT) (MB)    (FT/S)
CHAMBERS ISLAND  0800   69     220/  8/ 14 1010.8R
S GREEN BAY BUOY 0900   67 69  240/ 14/ 16 1013.4R
N MID LAKE BUOY  0850   71 69  260/ 19/ 23 1008.7F   4/ 4
NORTHPORT PIER   0800   71     260/  9/ 18 1010.2S
SISTER BAY       0814   72     280/ 21/ 24   N/A
ALGOMA LAKESHORE 0812          260/  7/ 12   N/A
SHEBOYGAN LAKESH 0900   70     260/ 11/ 13 1013.8R
PORT WASHINGTON  0840   68     270/  7/  9 1014.9S
ATWATER BUOY     0900   69     260/ 10/ 12 1016.3R
MILWAUKEE LAKESH 0900   71     260/  7/ 10   N/A
KENOSHA   LAKESH 0900   69     260/ 10/ 13 1015.2S
$$

TC  - TEMPERATURE IN CELSIUS
VSB - VISIBILITY IN STATUTE MILES
WCI - WIND CHILL INDEX
HX  - HEAT INDEX



USA.gov is the U.S. government's official web portal to all federal, state and local government web resources and services.